owner,sensor,date,latitude,longitude,vertical_datum,wind_speed,wind_to_direction,wind_speed_of_gust,qcFlag 
TCOON,ioos:station:TCOON:031:1,2016-01-01T00:00:00Z,28.4073,-96.7122,0.0,3.7,9.0,5.4,'11111222,11111222,11111222' 
TCOON,ioos:station:TCOON:031:1,2016-01-01T00:06:00Z,28.4073,-96.7122,0.0,3.4,7.0,5.2,'11111222,11111222,11111222' 
TCOON,ioos:station:TCOON:031:1,2016-01-01T00:12:00Z,28.4073,-96.7122,0.0,3.2,17.0,4.5,'11111222,11111222,11111222' 
TCOON,ioos:station:TCOON:031:1,2016-01-01T00:18:00Z,28.4073,-96.7122,0.0,3.2,17.0,4.5,'1111122,1111122,1111122' 
TCOON,ioos:station:TCOON:031:1,2016-01-01T00:24:00Z,28.4073,-96.7122,0.0,2.6,21.0,3.4,'11111222,11111222,11111222' 
TCOON,ioos:station:TCOON:031:1,2016-01-01T00:30:00Z,28.4073,-96.7122,0.0,2.8,8.0,3.7,'11111222,11111222,11111222' 
TCOON,ioos:station:TCOON:031:1,2016-01-01T00:36:00Z,28.4073,-96.7122,0.0,2.2,10.0,3.2,'11111222,11111222,11111222' 
TCOON,ioos:station:TCOON:031:1,2016-01-01T00:42:00Z,28.4073,-96.7122,0.0,2.7,16.0,3.4,'11111222,11111222,11111222' 
TCOON,ioos:station:TCOON:031:1,2016-01-01T00:48:00Z,28.4073,-96.7122,0.0,2.3,21.0,3.4,'11111222,11111222,11111222' 
TCOON,ioos:station:TCOON:031:1,2016-01-01T00:54:00Z,28.4073,-96.7122,0.0,1.9,17.0,3.7,'11111222,11111222,11111222' 
TCOON,ioos:station:TCOON:031:1,2016-01-01T01:00:00Z,28.4073,-96.7122,0.0,2.4,19.0,3.4,'11111222,11111222,11111222' 
TCOON,ioos:station:TCOON:031:1,2016-01-01T01:06:00Z,28.4073,-96.7122,0.0,2.7,11.0,3.4,'11111222,11111222,11111222' 
TCOON,ioos:station:TCOON:031:1,2016-01-01T01:12:00Z,28.4073,-96.7122,0.0,2.5,6.0,4.2,'11111222,11111222,11111222' 
TCOON,ioos:station:TCOON:031:1,2016-01-01T01:18:00Z,28.4073,-96.7122,0.0,2.5,6.0,4.2,'1111122,1111122,1111122' 
TCOON,ioos:station:TCOON:031:1,2016-01-01T01:24:00Z,28.4073,-96.7122,0.0,2.5,9.0,3.8,'11111222,11111222,11111222' 
TCOON,ioos:station:TCOON:031:1,2016-01-01T01:30:00Z,28.4073,-96.7122,0.0,2.8,2.0,4.6,'11111222,11111222,11111222' 
TCOON,ioos:station:TCOON:031:1,2016-01-01T01:36:00Z,28.4073,-96.7122,0.0,2.4,5.0,4.3,'11111222,11111222,11111222' 
TCOON,ioos:station:TCOON:031:1,2016-01-01T01:42:00Z,28.4073,-96.7122,0.0,2.4,351.0,4.3,'11111222,11111222,11111222' 
TCOON,ioos:station:TCOON:031:1,2016-01-01T01:48:00Z,28.4073,-96.7122,0.0,3.5,355.0,5.3,'11111222,11111222,11111222' 
TCOON,ioos:station:TCOON:031:1,2016-01-01T01:54:00Z,28.4073,-96.7122,0.0,4.0,355.0,5.8,'11111222,11111222,11111222' 
TCOON,ioos:station:TCOON:031:1,2016-01-01T02:00:00Z,28.4073,-96.7122,0.0,3.8,350.0,5.4,'11111222,11111222,11111222' 
TCOON,ioos:station:TCOON:031:1,2016-01-01T02:06:00Z,28.4073,-96.7122,0.0,4.4,0.0,6.3,'11111222,11111222,11111222' 
TCOON,ioos:station:TCOON:031:1,2016-01-01T02:12:00Z,28.4073,-96.7122,0.0,3.7,340.0,5.6,'11111222,11111222,11111222' 
TCOON,ioos:station:TCOON:031:1,2016-01-01T02:18:00Z,28.4073,-96.7122,0.0,3.7,340.0,5.6,'1111122,1111122,1111122' 
TCOON,ioos:station:TCOON:031:1,2016-01-01T02:24:00Z,28.4073,-96.7122,0.0,3.7,357.0,5.5,'11111222,11111222,11111222' 
TCOON,ioos:station:TCOON:031:1,2016-01-01T02:30:00Z,28.4073,-96.7122,0.0,3.3,347.0,5.3,'11111222,11111222,11111222' 
TCOON,ioos:station:TCOON:031:1,2016-01-01T02:36:00Z,28.4073,-96.7122,0.0,3.5,337.0,5.5,'11111222,11111222,11111222' 
TCOON,ioos:station:TCOON:031:1,2016-01-01T02:42:00Z,28.4073,-96.7122,0.0,3.6,340.0,5.1,'11111222,11111222,11111222' 
TCOON,ioos:station:TCOON:031:1,2016-01-01T02:48:00Z,28.4073,-96.7122,0.0,3.8,346.0,6.0,'11111222,11111222,11111222' 
TCOON,ioos:station:TCOON:031:1,2016-01-01T02:54:00Z,28.4073,-96.7122,0.0,4.2,359.0,6.3,'11111222,11111222,11111222' 
TCOON,ioos:station:TCOON:031:1,2016-01-01T03:00:00Z,28.4073,-96.7122,0.0,4.7,360.0,7.1,'11111222,11144222,11111222' 
TCOON,ioos:station:TCOON:031:1,2016-01-01T03:06:00Z,28.4073,-96.7122,0.0,4.4,359.0,6.5,'11111222,11111222,11111222' 
TCOON,ioos:station:TCOON:031:1,2016-01-01T03:12:00Z,28.4073,-96.7122,0.0,5.3,360.0,7.8,'11111222,11144222,11111222' 
TCOON,ioos:station:TCOON:031:1,2016-01-01T03:18:00Z,28.4073,-96.7122,0.0,5.3,360.0,7.8,'1111122,1111122,1111122' 
TCOON,ioos:station:TCOON:031:1,2016-01-01T03:24:00Z,28.4073,-96.7122,0.0,7.4,0.0,10.9,'11111222,11111222,11111222' 
TCOON,ioos:station:TCOON:031:1,2016-01-01T03:30:00Z,28.4073,-96.7122,0.0,7.3,3.0,10.0,'11111222,11111222,11111222' 
TCOON,ioos:station:TCOON:031:1,2016-01-01T03:36:00Z,28.4073,-96.7122,0.0,5.1,4.0,8.0,'11111222,11111222,11111222' 
TCOON,ioos:station:TCOON:031:1,2016-01-01T03:42:00Z,28.4073,-96.7122,0.0,5.8,10.0,8.3,'11111222,11111222,11111222' 
TCOON,ioos:station:TCOON:031:1,2016-01-01T03:48:00Z,28.4073,-96.7122,0.0,5.2,7.0,7.7,'11111222,11111222,11111222' 
TCOON,ioos:station:TCOON:031:1,2016-01-01T03:54:00Z,28.4073,-96.7122,0.0,6.0,10.0,8.5,'11111222,11111222,11111222' 
TCOON,ioos:station:TCOON:031:1,2016-01-01T04:00:00Z,28.4073,-96.7122,0.0,5.6,12.0,8.2,'11111222,11111222,11111222' 
TCOON,ioos:station:TCOON:031:1,2016-01-01T04:06:00Z,28.4073,-96.7122,0.0,5.8,8.0,8.9,'11111222,11111222,11111222' 
TCOON,ioos:station:TCOON:031:1,2016-01-01T04:12:00Z,28.4073,-96.7122,0.0,5.4,14.0,8.7,'11111222,11111222,11111222' 
TCOON,ioos:station:TCOON:031:1,2016-01-01T04:18:00Z,28.4073,-96.7122,0.0,4.6,13.0,8.4,'11111222,11111222,11111222' 
TCOON,ioos:station:TCOON:031:1,2016-01-01T04:24:00Z,28.4073,-96.7122,0.0,4.6,13.0,8.4,'1111122,1111122,1111122' 
TCOON,ioos:station:TCOON:031:1,2016-01-01T04:30:00Z,28.4073,-96.7122,0.0,4.9,5.0,7.5,'11111222,11111222,11111222' 
TCOON,ioos:station:TCOON:031:1,2016-01-01T04:36:00Z,28.4073,-96.7122,0.0,4.0,9.0,6.6,'11111222,11111222,11111222' 
TCOON,ioos:station:TCOON:031:1,2016-01-01T04:42:00Z,28.4073,-96.7122,0.0,4.0,13.0,7.7,'11111222,11111222,11111222' 
TCOON,ioos:station:TCOON:031:1,2016-01-01T04:48:00Z,28.4073,-96.7122,0.0,4.1,7.0,6.2,'11111222,11111222,11111222' 
TCOON,ioos:station:TCOON:031:1,2016-01-01T04:54:00Z,28.4073,-96.7122,0.0,4.4,4.0,5.8,'11111222,11111222,11111222' 
TCOON,ioos:station:TCOON:031:1,2016-01-01T05:00:00Z,28.4073,-96.7122,0.0,4.5,2.0,6.0,'11111222,11111222,11111222' 
TCOON,ioos:station:TCOON:031:1,2016-01-01T05:06:00Z,28.4073,-96.7122,0.0,5.3,2.0,7.7,'11111222,11111222,11111222' 
TCOON,ioos:station:TCOON:031:1,2016-01-01T05:12:00Z,28.4073,-96.7122,0.0,4.3,11.0,7.1,'11111222,11111222,11111222' 
TCOON,ioos:station:TCOON:031:1,2016-01-01T05:18:00Z,28.4073,-96.7122,0.0,3.4,2.0,5.6,'11111222,11111222,11111222' 
TCOON,ioos:station:TCOON:031:1,2016-01-01T05:24:00Z,28.4073,-96.7122,0.0,3.4,2.0,5.6,'1111122,1111122,1111122' 
TCOON,ioos:station:TCOON:031:1,2016-01-01T05:30:00Z,28.4073,-96.7122,0.0,6.0,357.0,9.1,'11111222,11111222,11111222' 
TCOON,ioos:station:TCOON:031:1,2016-01-01T05:36:00Z,28.4073,-96.7122,0.0,4.3,352.0,9.2,'11111222,11111222,11111222' 
TCOON,ioos:station:TCOON:031:1,2016-01-01T05:42:00Z,28.4073,-96.7122,0.0,4.5,357.0,7.6,'11111222,11111222,11111222' 
TCOON,ioos:station:TCOON:031:1,2016-01-01T05:48:00Z,28.4073,-96.7122,0.0,4.8,1.0,7.4,'11111222,11111222,11111222' 
TCOON,ioos:station:TCOON:031:1,2016-01-01T05:54:00Z,28.4073,-96.7122,0.0,5.1,0.0,7.9,'11111222,11111222,11111222' 
TCOON,ioos:station:TCOON:031:1,2016-01-01T06:00:00Z,28.4073,-96.7122,0.0,5.5,354.0,7.0,'11111222,11111222,11111222' 
TCOON,ioos:station:TCOON:031:1,2016-01-01T06:06:00Z,28.4073,-96.7122,0.0,4.2,15.0,6.9,'11111222,11111222,11111222' 
TCOON,ioos:station:TCOON:031:1,2016-01-01T06:12:00Z,28.4073,-96.7122,0.0,4.8,2.0,7.4,'11111222,11111222,11111222' 
TCOON,ioos:station:TCOON:031:1,2016-01-01T06:18:00Z,28.4073,-96.7122,0.0,4.8,2.0,7.4,'1111122,1111122,1111122' 
TCOON,ioos:station:TCOON:031:1,2016-01-01T06:24:00Z,28.4073,-96.7122,0.0,5.8,1.0,7.8,'11111222,11111222,11111222' 
TCOON,ioos:station:TCOON:031:1,2016-01-01T06:30:00Z,28.4073,-96.7122,0.0,5.9,357.0,8.0,'11111222,11111222,11111222' 
TCOON,ioos:station:TCOON:031:1,2016-01-01T06:36:00Z,28.4073,-96.7122,0.0,5.9,4.0,8.0,'11111222,11111222,11111222' 
TCOON,ioos:station:TCOON:031:1,2016-01-01T06:42:00Z,28.4073,-96.7122,0.0,5.7,12.0,8.3,'11111222,11111222,11111222' 
TCOON,ioos:station:TCOON:031:1,2016-01-01T06:48:00Z,28.4073,-96.7122,0.0,5.5,11.0,7.9,'11111222,11111222,11111222' 
TCOON,ioos:station:TCOON:031:1,2016-01-01T06:54:00Z,28.4073,-96.7122,0.0,4.4,4.0,6.9,'11111222,11111222,11111222' 
TCOON,ioos:station:TCOON:031:1,2016-01-01T07:00:00Z,28.4073,-96.7122,0.0,5.5,360.0,7.6,'11111222,11144222,11111222' 
TCOON,ioos:station:TCOON:031:1,2016-01-01T07:06:00Z,28.4073,-96.7122,0.0,4.8,5.0,7.0,'11111222,11111222,11111222' 
TCOON,ioos:station:TCOON:031:1,2016-01-01T07:12:00Z,28.4073,-96.7122,0.0,4.4,7.0,9.3,'11111222,11111222,11111222' 
TCOON,ioos:station:TCOON:031:1,2016-01-01T07:18:00Z,28.4073,-96.7122,0.0,4.4,7.0,9.3,'1111122,1111122,1111122' 
TCOON,ioos:station:TCOON:031:1,2016-01-01T07:24:00Z,28.4073,-96.7122,0.0,5.5,5.0,8.8,'11111222,11111222,11111222' 
TCOON,ioos:station:TCOON:031:1,2016-01-01T07:30:00Z,28.4073,-96.7122,0.0,5.2,7.0,8.6,'11111222,11111222,11111222' 
TCOON,ioos:station:TCOON:031:1,2016-01-01T07:36:00Z,28.4073,-96.7122,0.0,7.2,11.0,9.9,'11111222,11111222,11111222' 
TCOON,ioos:station:TCOON:031:1,2016-01-01T07:42:00Z,28.4073,-96.7122,0.0,6.2,10.0,9.9,'11111222,11111222,11111222' 
TCOON,ioos:station:TCOON:031:1,2016-01-01T07:48:00Z,28.4073,-96.7122,0.0,5.4,9.0,9.4,'11111222,11111222,11111222' 
TCOON,ioos:station:TCOON:031:1,2016-01-01T07:54:00Z,28.4073,-96.7122,0.0,5.3,12.0,8.4,'11111222,11111222,11111222' 
TCOON,ioos:station:TCOON:031:1,2016-01-01T08:00:00Z,28.4073,-96.7122,0.0,6.7,10.0,8.6,'11111222,11111222,11111222' 
TCOON,ioos:station:TCOON:031:1,2016-01-01T08:06:00Z,28.4073,-96.7122,0.0,7.0,8.0,9.2,'11111222,11111222,11111222' 
TCOON,ioos:station:TCOON:031:1,2016-01-01T08:12:00Z,28.4073,-96.7122,0.0,6.5,11.0,8.6,'11111222,11111222,11111222' 
TCOON,ioos:station:TCOON:031:1,2016-01-01T08:18:00Z,28.4073,-96.7122,0.0,6.5,11.0,8.6,'1111122,1111122,1111122' 
TCOON,ioos:station:TCOON:031:1,2016-01-01T08:24:00Z,28.4073,-96.7122,0.0,6.0,8.0,9.3,'11111222,11111222,11111222' 
TCOON,ioos:station:TCOON:031:1,2016-01-01T08:30:00Z,28.4073,-96.7122,0.0,5.1,13.0,9.1,'11111222,11111222,11111222' 
TCOON,ioos:station:TCOON:031:1,2016-01-01T08:36:00Z,28.4073,-96.7122,0.0,5.3,11.0,6.6,'11111222,11111222,11111222' 
TCOON,ioos:station:TCOON:031:1,2016-01-01T08:42:00Z,28.4073,-96.7122,0.0,5.8,5.0,7.6,'11111222,11111222,11111222' 
TCOON,ioos:station:TCOON:031:1,2016-01-01T08:48:00Z,28.4073,-96.7122,0.0,6.1,11.0,9.0,'11111222,11111222,11111222' 
TCOON,ioos:station:TCOON:031:1,2016-01-01T08:54:00Z,28.4073,-96.7122,0.0,4.8,11.0,7.4,'11111222,11111222,11111222' 
TCOON,ioos:station:TCOON:031:1,2016-01-01T09:00:00Z,28.4073,-96.7122,0.0,4.0,6.0,7.1,'11111222,11111222,11111222' 
TCOON,ioos:station:TCOON:031:1,2016-01-01T09:06:00Z,28.4073,-96.7122,0.0,4.0,6.0,7.1,'11111222,11111222,11111222' 
TCOON,ioos:station:TCOON:031:1,2016-01-01T09:12:00Z,28.4073,-96.7122,0.0,4.6,4.0,7.0,'11111222,11111222,11111222' 
TCOON,ioos:station:TCOON:031:1,2016-01-01T09:18:00Z,28.4073,-96.7122,0.0,4.5,11.0,7.4,'11111222,11111222,11111222' 
TCOON,ioos:station:TCOON:031:1,2016-01-01T09:24:00Z,28.4073,-96.7122,0.0,4.5,11.0,7.4,'1111122,1111122,1111122' 
TCOON,ioos:station:TCOON:031:1,2016-01-01T09:30:00Z,28.4073,-96.7122,0.0,5.3,6.0,7.9,'11111222,11111222,11111222' 
TCOON,ioos:station:TCOON:031:1,2016-01-01T09:36:00Z,28.4073,-96.7122,0.0,99.0,-9999.0,99.0,'11144222,99999999,11144222' 
TCOON,ioos:station:TCOON:031:1,2016-01-01T09:42:00Z,28.4073,-96.7122,0.0,99.0,-9999.0,99.0,'11144222,99999999,11144222' 
TCOON,ioos:station:TCOON:031:1,2016-01-01T09:48:00Z,28.4073,-96.7122,0.0,99.0,-9999.0,99.0,'11144222,99999999,11144222' 
TCOON,ioos:station:TCOON:031:1,2016-01-01T09:54:00Z,28.4073,-96.7122,0.0,4.8,1.0,7.7,'11111222,11111222,11111222' 
TCOON,ioos:station:TCOON:031:1,2016-01-01T10:00:00Z,28.4073,-96.7122,0.0,4.8,6.0,7.3,'11111222,11111222,11111222' 
TCOON,ioos:station:TCOON:031:1,2016-01-01T10:06:00Z,28.4073,-96.7122,0.0,4.2,3.0,8.8,'11111222,11111222,11111222' 
TCOON,ioos:station:TCOON:031:1,2016-01-01T10:12:00Z,28.4073,-96.7122,0.0,5.0,353.0,8.0,'11111222,11111222,11111222' 
TCOON,ioos:station:TCOON:031:1,2016-01-01T10:18:00Z,28.4073,-96.7122,0.0,5.0,353.0,8.0,'1111122,1111122,1111122' 
TCOON,ioos:station:TCOON:031:1,2016-01-01T10:24:00Z,28.4073,-96.7122,0.0,4.7,346.0,7.3,'11111222,11111222,11111222' 
TCOON,ioos:station:TCOON:031:1,2016-01-01T10:30:00Z,28.4073,-96.7122,0.0,5.2,2.0,7.3,'11111222,11111222,11111222' 
TCOON,ioos:station:TCOON:031:1,2016-01-01T10:36:00Z,28.4073,-96.7122,0.0,5.3,347.0,8.2,'11111222,11111222,11111222' 
TCOON,ioos:station:TCOON:031:1,2016-01-01T10:42:00Z,28.4073,-96.7122,0.0,5.6,0.0,7.2,'11111222,11111222,11111222' 
TCOON,ioos:station:TCOON:031:1,2016-01-01T10:48:00Z,28.4073,-96.7122,0.0,6.1,342.0,10.0,'11111222,11111222,11111222' 
TCOON,ioos:station:TCOON:031:1,2016-01-01T10:54:00Z,28.4073,-96.7122,0.0,5.9,348.0,9.2,'11111222,11111222,11111222' 
TCOON,ioos:station:TCOON:031:1,2016-01-01T11:00:00Z,28.4073,-96.7122,0.0,4.9,349.0,7.1,'11111222,11111222,11111222' 
TCOON,ioos:station:TCOON:031:1,2016-01-01T11:06:00Z,28.4073,-96.7122,0.0,5.1,358.0,8.2,'11111222,11111222,11111222' 
TCOON,ioos:station:TCOON:031:1,2016-01-01T11:12:00Z,28.4073,-96.7122,0.0,4.9,5.0,7.6,'11111222,11111222,11111222' 
TCOON,ioos:station:TCOON:031:1,2016-01-01T11:18:00Z,28.4073,-96.7122,0.0,4.9,5.0,7.6,'1111122,1111122,1111122' 
TCOON,ioos:station:TCOON:031:1,2016-01-01T11:24:00Z,28.4073,-96.7122,0.0,6.4,9.0,8.9,'11111222,11111222,11111222' 
TCOON,ioos:station:TCOON:031:1,2016-01-01T11:30:00Z,28.4073,-96.7122,0.0,7.0,10.0,11.0,'11111222,11111222,11111222' 
TCOON,ioos:station:TCOON:031:1,2016-01-01T11:36:00Z,28.4073,-96.7122,0.0,5.9,7.0,9.8,'11111222,11111222,11111222' 
TCOON,ioos:station:TCOON:031:1,2016-01-01T11:42:00Z,28.4073,-96.7122,0.0,5.6,2.0,8.3,'11111222,11111222,11111222' 
TCOON,ioos:station:TCOON:031:1,2016-01-01T11:48:00Z,28.4073,-96.7122,0.0,5.8,5.0,10.6,'11111222,11111222,11111222' 
TCOON,ioos:station:TCOON:031:1,2016-01-01T11:54:00Z,28.4073,-96.7122,0.0,6.8,6.0,11.9,'11111222,11111222,11111222' 
TCOON,ioos:station:TCOON:031:1,2016-01-01T12:00:00Z,28.4073,-96.7122,0.0,6.0,5.0,10.0,'11111222,11111222,11111222' 
TCOON,ioos:station:TCOON:031:1,2016-01-01T12:06:00Z,28.4073,-96.7122,0.0,5.2,5.0,9.4,'11111222,11111222,11111222' 
TCOON,ioos:station:TCOON:031:1,2016-01-01T12:12:00Z,28.4073,-96.7122,0.0,7.2,4.0,10.6,'11111222,11111222,11111222' 
TCOON,ioos:station:TCOON:031:1,2016-01-01T12:18:00Z,28.4073,-96.7122,0.0,7.2,4.0,10.6,'1111122,1111122,1111122' 
TCOON,ioos:station:TCOON:031:1,2016-01-01T12:24:00Z,28.4073,-96.7122,0.0,6.7,6.0,10.3,'11111222,11111222,11111222' 
TCOON,ioos:station:TCOON:031:1,2016-01-01T12:30:00Z,28.4073,-96.7122,0.0,7.3,7.0,11.3,'11111222,11111222,11111222' 
TCOON,ioos:station:TCOON:031:1,2016-01-01T12:36:00Z,28.4073,-96.7122,0.0,7.3,2.0,9.4,'11111222,11111222,11111222' 
TCOON,ioos:station:TCOON:031:1,2016-01-01T12:42:00Z,28.4073,-96.7122,0.0,6.4,7.0,9.7,'11111222,11111222,11111222' 
TCOON,ioos:station:TCOON:031:1,2016-01-01T12:48:00Z,28.4073,-96.7122,0.0,6.0,9.0,9.4,'11111222,11111222,11111222' 
TCOON,ioos:station:TCOON:031:1,2016-01-01T12:54:00Z,28.4073,-96.7122,0.0,6.9,11.0,9.8,'11111222,11111222,11111222' 
TCOON,ioos:station:TCOON:031:1,2016-01-01T13:00:00Z,28.4073,-96.7122,0.0,6.6,9.0,10.4,'11111222,11111222,11111222' 
TCOON,ioos:station:TCOON:031:1,2016-01-01T13:06:00Z,28.4073,-96.7122,0.0,6.7,13.0,9.6,'11111222,11111222,11111222' 
TCOON,ioos:station:TCOON:031:1,2016-01-01T13:12:00Z,28.4073,-96.7122,0.0,4.8,359.0,9.0,'11111222,11111222,11111222' 
TCOON,ioos:station:TCOON:031:1,2016-01-01T13:18:00Z,28.4073,-96.7122,0.0,4.8,359.0,9.0,'1111122,1111122,1111122' 
TCOON,ioos:station:TCOON:031:1,2016-01-01T13:24:00Z,28.4073,-96.7122,0.0,6.2,4.0,8.7,'11111222,11111222,11111222' 
TCOON,ioos:station:TCOON:031:1,2016-01-01T13:30:00Z,28.4073,-96.7122,0.0,6.8,6.0,9.6,'11111222,11111222,11111222' 
TCOON,ioos:station:TCOON:031:1,2016-01-01T13:36:00Z,28.4073,-96.7122,0.0,5.8,7.0,8.4,'11111222,11111222,11111222' 
TCOON,ioos:station:TCOON:031:1,2016-01-01T13:42:00Z,28.4073,-96.7122,0.0,5.8,5.0,8.4,'11111222,11111222,11111222' 
TCOON,ioos:station:TCOON:031:1,2016-01-01T13:48:00Z,28.4073,-96.7122,0.0,6.6,5.0,9.5,'11111222,11111222,11111222' 
TCOON,ioos:station:TCOON:031:1,2016-01-01T13:54:00Z,28.4073,-96.7122,0.0,5.9,359.0,9.0,'11111222,11111222,11111222' 
TCOON,ioos:station:TCOON:031:1,2016-01-01T14:00:00Z,28.4073,-96.7122,0.0,5.7,359.0,8.0,'11111222,11111222,11111222' 
TCOON,ioos:station:TCOON:031:1,2016-01-01T14:06:00Z,28.4073,-96.7122,0.0,6.7,360.0,9.6,'11111222,11144222,11111222' 
TCOON,ioos:station:TCOON:031:1,2016-01-01T14:12:00Z,28.4073,-96.7122,0.0,7.7,356.0,10.4,'11111222,11111222,11111222' 
TCOON,ioos:station:TCOON:031:1,2016-01-01T14:18:00Z,28.4073,-96.7122,0.0,7.7,356.0,10.4,'1111122,1111122,1111122' 
TCOON,ioos:station:TCOON:031:1,2016-01-01T14:24:00Z,28.4073,-96.7122,0.0,6.4,358.0,10.2,'11111222,11111222,11111222' 
TCOON,ioos:station:TCOON:031:1,2016-01-01T14:30:00Z,28.4073,-96.7122,0.0,7.5,359.0,11.4,'11111222,11111222,11111222' 
TCOON,ioos:station:TCOON:031:1,2016-01-01T14:36:00Z,28.4073,-96.7122,0.0,5.9,357.0,9.3,'11111222,11111222,11111222' 
TCOON,ioos:station:TCOON:031:1,2016-01-01T14:42:00Z,28.4073,-96.7122,0.0,5.6,352.0,8.9,'11111222,11111222,11111222' 
TCOON,ioos:station:TCOON:031:1,2016-01-01T14:48:00Z,28.4073,-96.7122,0.0,6.5,355.0,10.6,'11111222,11111222,11111222' 
TCOON,ioos:station:TCOON:031:1,2016-01-01T14:54:00Z,28.4073,-96.7122,0.0,6.5,5.0,9.5,'11111222,11111222,11111222' 
TCOON,ioos:station:TCOON:031:1,2016-01-01T15:00:00Z,28.4073,-96.7122,0.0,7.4,8.0,9.8,'11111222,11111222,11111222' 
TCOON,ioos:station:TCOON:031:1,2016-01-01T15:06:00Z,28.4073,-96.7122,0.0,5.9,10.0,8.6,'11111222,11111222,11111222' 
TCOON,ioos:station:TCOON:031:1,2016-01-01T15:12:00Z,28.4073,-96.7122,0.0,5.9,10.0,9.9,'11111222,11111222,11111222' 
TCOON,ioos:station:TCOON:031:1,2016-01-01T15:18:00Z,28.4073,-96.7122,0.0,5.9,10.0,9.9,'1111122,1111122,1111122' 
TCOON,ioos:station:TCOON:031:1,2016-01-01T15:24:00Z,28.4073,-96.7122,0.0,4.7,9.0,8.4,'11111222,11111222,11111222' 
TCOON,ioos:station:TCOON:031:1,2016-01-01T15:30:00Z,28.4073,-96.7122,0.0,6.1,2.0,8.7,'11111222,11111222,11111222' 
TCOON,ioos:station:TCOON:031:1,2016-01-01T15:36:00Z,28.4073,-96.7122,0.0,5.7,360.0,8.4,'11111222,11144222,11111222' 
TCOON,ioos:station:TCOON:031:1,2016-01-01T15:42:00Z,28.4073,-96.7122,0.0,7.0,1.0,10.0,'11111222,11111222,11111222' 
TCOON,ioos:station:TCOON:031:1,2016-01-01T15:48:00Z,28.4073,-96.7122,0.0,6.0,1.0,7.2,'11111222,11111222,11111222' 
TCOON,ioos:station:TCOON:031:1,2016-01-01T15:54:00Z,28.4073,-96.7122,0.0,5.7,4.0,9.8,'11111222,11111222,11111222' 
TCOON,ioos:station:TCOON:031:1,2016-01-01T16:00:00Z,28.4073,-96.7122,0.0,5.8,2.0,7.9,'11111222,11111222,11111222' 
TCOON,ioos:station:TCOON:031:1,2016-01-01T16:06:00Z,28.4073,-96.7122,0.0,5.1,6.0,8.4,'11111222,11111222,11111222' 
TCOON,ioos:station:TCOON:031:1,2016-01-01T16:12:00Z,28.4073,-96.7122,0.0,5.4,6.0,8.5,'11111222,11111222,11111222' 
TCOON,ioos:station:TCOON:031:1,2016-01-01T16:18:00Z,28.4073,-96.7122,0.0,5.4,6.0,8.5,'1111122,1111122,1111122' 
TCOON,ioos:station:TCOON:031:1,2016-01-01T16:24:00Z,28.4073,-96.7122,0.0,7.2,8.0,10.0,'11111222,11111222,11111222' 
TCOON,ioos:station:TCOON:031:1,2016-01-01T16:30:00Z,28.4073,-96.7122,0.0,6.9,8.0,9.6,'11111222,11111222,11111222' 
TCOON,ioos:station:TCOON:031:1,2016-01-01T16:36:00Z,28.4073,-96.7122,0.0,5.4,2.0,8.1,'11111222,11111222,11111222' 
TCOON,ioos:station:TCOON:031:1,2016-01-01T16:42:00Z,28.4073,-96.7122,0.0,5.8,5.0,9.4,'11111222,11111222,11111222' 
TCOON,ioos:station:TCOON:031:1,2016-01-01T16:48:00Z,28.4073,-96.7122,0.0,5.3,359.0,8.8,'11111222,11111222,11111222' 
TCOON,ioos:station:TCOON:031:1,2016-01-01T16:54:00Z,28.4073,-96.7122,0.0,5.9,358.0,7.8,'11111222,11111222,11111222' 
TCOON,ioos:station:TCOON:031:1,2016-01-01T17:00:00Z,28.4073,-96.7122,0.0,5.8,353.0,8.1,'11111222,11111222,11111222' 
TCOON,ioos:station:TCOON:031:1,2016-01-01T17:06:00Z,28.4073,-96.7122,0.0,5.7,350.0,8.0,'11111222,11111222,11111222' 
TCOON,ioos:station:TCOON:031:1,2016-01-01T17:12:00Z,28.4073,-96.7122,0.0,4.8,349.0,7.3,'11111222,11111222,11111222' 
TCOON,ioos:station:TCOON:031:1,2016-01-01T17:18:00Z,28.4073,-96.7122,0.0,4.8,349.0,7.3,'1111122,1111122,1111122' 
TCOON,ioos:station:TCOON:031:1,2016-01-01T17:24:00Z,28.4073,-96.7122,0.0,4.1,352.0,7.7,'11111222,11111222,11111222' 
TCOON,ioos:station:TCOON:031:1,2016-01-01T17:30:00Z,28.4073,-96.7122,0.0,4.7,351.0,6.5,'11111222,11111222,11111222' 
TCOON,ioos:station:TCOON:031:1,2016-01-01T17:36:00Z,28.4073,-96.7122,0.0,5.3,346.0,7.1,'11111222,11111222,11111222' 
TCOON,ioos:station:TCOON:031:1,2016-01-01T17:42:00Z,28.4073,-96.7122,0.0,5.4,347.0,9.0,'11111222,11111222,11111222' 
TCOON,ioos:station:TCOON:031:1,2016-01-01T17:48:00Z,28.4073,-96.7122,0.0,4.5,349.0,8.1,'11111222,11111222,11111222' 
TCOON,ioos:station:TCOON:031:1,2016-01-01T17:54:00Z,28.4073,-96.7122,0.0,5.8,347.0,8.6,'11111222,11111222,11111222' 
TCOON,ioos:station:TCOON:031:1,2016-01-01T18:00:00Z,28.4073,-96.7122,0.0,4.4,350.0,8.8,'11111222,11111222,11111222' 
TCOON,ioos:station:TCOON:031:1,2016-01-01T18:06:00Z,28.4073,-96.7122,0.0,6.2,350.0,8.2,'11111222,11111222,11111222' 
TCOON,ioos:station:TCOON:031:1,2016-01-01T18:12:00Z,28.4073,-96.7122,0.0,4.2,354.0,8.0,'11111222,11111222,11111222' 
TCOON,ioos:station:TCOON:031:1,2016-01-01T18:18:00Z,28.4073,-96.7122,0.0,4.2,354.0,8.0,'1111122,1111122,1111122' 
TCOON,ioos:station:TCOON:031:1,2016-01-01T18:24:00Z,28.4073,-96.7122,0.0,4.7,357.0,6.9,'11111222,11111222,11111222' 
TCOON,ioos:station:TCOON:031:1,2016-01-01T18:30:00Z,28.4073,-96.7122,0.0,5.2,357.0,8.2,'11111222,11111222,11111222' 
TCOON,ioos:station:TCOON:031:1,2016-01-01T18:36:00Z,28.4073,-96.7122,0.0,5.5,356.0,7.3,'11111222,11111222,11111222' 
TCOON,ioos:station:TCOON:031:1,2016-01-01T18:42:00Z,28.4073,-96.7122,0.0,4.2,346.0,7.7,'11111222,11111222,11111222' 
TCOON,ioos:station:TCOON:031:1,2016-01-01T18:48:00Z,28.4073,-96.7122,0.0,4.6,359.0,6.8,'11111222,11111222,11111222' 
TCOON,ioos:station:TCOON:031:1,2016-01-01T18:54:00Z,28.4073,-96.7122,0.0,4.3,349.0,7.2,'11111222,11111222,11111222' 
TCOON,ioos:station:TCOON:031:1,2016-01-01T19:00:00Z,28.4073,-96.7122,0.0,5.7,352.0,8.3,'11111222,11111222,11111222' 
TCOON,ioos:station:TCOON:031:1,2016-01-01T19:06:00Z,28.4073,-96.7122,0.0,5.2,356.0,7.2,'11111222,11111222,11111222' 
TCOON,ioos:station:TCOON:031:1,2016-01-01T19:12:00Z,28.4073,-96.7122,0.0,4.7,351.0,7.9,'11111222,11111222,11111222' 
TCOON,ioos:station:TCOON:031:1,2016-01-01T19:18:00Z,28.4073,-96.7122,0.0,4.7,354.0,6.1,'11111222,11111222,11111222' 
TCOON,ioos:station:TCOON:031:1,2016-01-01T19:24:00Z,28.4073,-96.7122,0.0,4.7,357.0,7.3,'11111222,11111222,11111222' 
TCOON,ioos:station:TCOON:031:1,2016-01-01T19:30:00Z,28.4073,-96.7122,0.0,4.7,0.0,7.3,'11111222,11111222,11111222' 
TCOON,ioos:station:TCOON:031:1,2016-01-01T19:36:00Z,28.4073,-96.7122,0.0,3.9,355.0,6.6,'11111222,11111222,11111222' 
TCOON,ioos:station:TCOON:031:1,2016-01-01T19:42:00Z,28.4073,-96.7122,0.0,4.7,351.0,6.9,'11111222,11111222,11111222' 
TCOON,ioos:station:TCOON:031:1,2016-01-01T19:48:00Z,28.4073,-96.7122,0.0,4.8,345.0,7.1,'11111222,11111222,11111222' 
TCOON,ioos:station:TCOON:031:1,2016-01-01T19:54:00Z,28.4073,-96.7122,0.0,4.2,346.0,6.1,'11111222,11111222,11111222' 
TCOON,ioos:station:TCOON:031:1,2016-01-01T20:00:00Z,28.4073,-96.7122,0.0,3.1,343.0,6.0,'11111222,11111222,11111222' 
TCOON,ioos:station:TCOON:031:1,2016-01-01T20:06:00Z,28.4073,-96.7122,0.0,3.3,340.0,6.2,'11111222,11111222,11111222' 
TCOON,ioos:station:TCOON:031:1,2016-01-01T20:12:00Z,28.4073,-96.7122,0.0,3.1,344.0,5.5,'11111222,11111222,11111222' 
TCOON,ioos:station:TCOON:031:1,2016-01-01T20:18:00Z,28.4073,-96.7122,0.0,3.0,353.0,5.5,'11111222,11111222,11111222' 
TCOON,ioos:station:TCOON:031:1,2016-01-01T20:24:00Z,28.4073,-96.7122,0.0,3.7,351.0,5.1,'11111222,11111222,11111222' 
TCOON,ioos:station:TCOON:031:1,2016-01-01T20:30:00Z,28.4073,-96.7122,0.0,4.1,343.0,6.2,'11111222,11111222,11111222' 